User: anonymous   Login
Location: Caltech
(34.1382°N, 118.1253°W)
Time: 18:24:09
(UTC-07:00)
Language:

Spot 4 Rocket - Orbit

View from above orbital plane
View from above orbital plane
View from above satellite
View from above satellite

Ground track
Ground track

The orbit data is extracted from the following two-line orbital elements,

1 25261U 98017B   15215.53175850  .00000175  00000-0  79175-4 0  9995
2 25261 098.4581 163.7241 0002803 339.1375 151.5741 14.33332294907072
Epoch (UTC): 03 August 2015 12:45:43
Eccentricity: 0.0002803
inclination: 98.4581°
perigee height: 778 km
apogee height: 782 km
right ascension of ascending node: 163.7241°
argument of perigee: 339.1375°
revolutions per day: 14.33332294
mean anomaly at epoch: 151.5741°
orbit number at epoch: 90707

The dashed part of the orbit path shows where the satellite is in the earth's shadow,  

DLR